This is the latest recevied weather packets stored in our database for station/object DL9GJ-6. If no packets are shown the sender has not sent any weather packets the latest 1 day(s).
| Time | Temp. | Humidity | Pressure | Rain* | Wind** | Luminosity | Snow |
|---|---|---|---|---|---|---|---|
| 1778010262 | 14.44° C | 79% | 1008 hPa | 0 mm | 1.79 m/s, 237° | 0 W/m² | - |
| 1778010252 | 14.44° C | 79% | 1008 hPa | 0 mm | 1.79 m/s, 237° | 0 W/m² | - |
| 1778009901 | 14.44° C | 79% | 1007.9 hPa | 0 mm | 4.47 m/s, 232° | 0 W/m² | - |
| 1778009541 | 15° C | 79% | 1007.8 hPa | 0 mm | 2.24 m/s, 296° | 0 W/m² | - |
| 1778009182 | 15° C | 78% | 1007.7 hPa | 0 mm | 2.24 m/s, 248° | 0 W/m² | - |
| 1778009167 | 15° C | 78% | 1007.7 hPa | 0 mm | 2.24 m/s, 248° | 0 W/m² | - |
| 1778008822 | 15° C | 77% | 1007.5 hPa | 0 mm | 1.79 m/s, 245° | 0 W/m² | - |
| 1778008460 | 15° C | 76% | 1007.2 hPa | 0 mm | 2.24 m/s, 229° | 0 W/m² | - |
| 1778008101 | 15° C | 76% | 1007 hPa | 0 mm | 1.79 m/s, 239° | 0 W/m² | - |
| 1778008087 | 15° C | 76% | 1007 hPa | 0 mm | 1.79 m/s, 239° | 0 W/m² | - |
| 1778007741 | 15° C | 75% | 1006.9 hPa | 0 mm | 1.34 m/s, 240° | 0 W/m² | - |
| 1778007729 | 15° C | 75% | 1006.9 hPa | 0 mm | 1.34 m/s, 240° | 0 W/m² | - |
| 1778007380 | 15° C | 74% | 1006.8 hPa | 0 mm | 0.89 m/s, 270° | 0 W/m² | - |
| 1778007020 | 15° C | 74% | 1006.7 hPa | 0 mm | 1.34 m/s, 319° | 0 W/m² | - |
| 1778006660 | 15.56° C | 73% | 1006.8 hPa | 0 mm | 0.89 m/s, 244° | 0 W/m² | - |
| 1778006301 | 15.56° C | 73% | 1006.6 hPa | 0 mm | 2.24 m/s, 228° | 0 W/m² | - |
| 1778005950 | 15.56° C | 74% | 1006.6 hPa | 0 mm | 0.89 m/s, 249° | 0 W/m² | - |
| 1778005928 | 15.56° C | 74% | 1006.6 hPa | 0 mm | 0.89 m/s, 249° | 0 W/m² | - |
| 1778005582 | 15.56° C | 74% | 1006.6 hPa | 0 mm | 0 m/s | 5 W/m² | - |
| 1778005221 | 15.56° C | 74% | 1006.6 hPa | 0 mm | 0 m/s | 12 W/m² | - |
| 1778004862 | 15.56° C | 73% | 1006.4 hPa | 0 mm | 0 m/s | 17 W/m² | - |
| 1778004849 | 15.56° C | 73% | 1006.4 hPa | 0 mm | 0 m/s | 17 W/m² | - |
| 1778004501 | 15.56° C | 73% | 1006.3 hPa | 0 mm | 0 m/s | 23 W/m² | - |
| 1778004141 | 16.11° C | 72% | 1006.2 hPa | 0 mm | 0 m/s | 31 W/m² | - |
| 1778003781 | 16.11° C | 71% | 1006.2 hPa | 0 mm | 0 m/s | 36 W/m² | - |
* Rain latest hour (hover to see other rain measurements)
** Current wind speed in m/s (hover to see current wind gust speed)